TimeMST,TemperatureF,Dew PointF,Humidity,Sea Level PressureIn,VisibilityMPH,Wind Direction,Wind SpeedMPH,Gust SpeedMPH,PrecipitationIn,Events,Conditions,WindDirDegrees,DateUTC
12:53 AM,30.9,16.0,54,30.01,10.0,South,15.0,-,N/A,,Scattered Clouds,190,2013-12-28 07:53:00
1:53 AM,30.9,15.1,52,29.99,10.0,SSW,16.1,-,N/A,,Clear,200,2013-12-28 08:53:00
2:53 AM,30.9,15.1,52,30.03,10.0,SSW,15.0,-,N/A,,Overcast,210,2013-12-28 09:53:00
3:53 AM,30.9,16.0,54,30.05,10.0,SSW,13.8,-,N/A,,Overcast,200,2013-12-28 10:53:00
4:53 AM,30.9,16.0,54,30.08,10.0,South,8.1,-,N/A,,Overcast,190,2013-12-28 11:53:00
5:53 AM,36.0,19.9,52,30.09,10.0,West,12.7,-,N/A,,Overcast,260,2013-12-28 12:53:00
6:53 AM,34.0,18.0,52,30.13,10.0,West,17.3,-,N/A,,Clear,270,2013-12-28 13:53:00
7:53 AM,28.9,19.0,67,30.19,10.0,West,11.5,-,N/A,,Clear,270,2013-12-28 14:53:00
8:53 AM,30.0,17.1,59,30.21,10.0,Calm,Calm,-,N/A,,Mostly Cloudy,0,2013-12-28 15:53:00
9:53 AM,30.0,19.0,64,30.22,10.0,South,5.8,-,N/A,,Overcast,180,2013-12-28 16:53:00
10:53 AM,33.1,19.9,59,30.25,10.0,NE,9.2,-,N/A,,Overcast,40,2013-12-28 17:53:00
11:15 AM,28.0,18.0,66,30.18,10.0,ENE,13.8,-,N/A,,Overcast,60,2013-12-28 18:15:00
11:53 AM,28.9,18.0,64,30.25,10.0,ENE,11.5,-,N/A,,Overcast,60,2013-12-28 18:53:00
12:53 PM,30.0,19.0,64,30.26,10.0,NNE,8.1,-,N/A,,Overcast,30,2013-12-28 19:53:00
1:53 PM,28.0,19.0,69,30.26,10.0,NE,10.4,-,N/A,,Overcast,40,2013-12-28 20:53:00
2:53 PM,28.9,19.9,69,30.26,10.0,NNE,6.9,-,N/A,,Overcast,30,2013-12-28 21:53:00
3:53 PM,28.9,19.0,67,30.29,10.0,North,5.8,-,N/A,,Mostly Cloudy,360,2013-12-28 22:53:00
4:53 PM,26.1,17.1,69,30.31,10.0,ENE,4.6,-,N/A,,Overcast,60,2013-12-28 23:53:00
5:53 PM,24.1,16.0,71,30.31,10.0,North,3.5,-,N/A,,Mostly Cloudy,360,2013-12-29 00:53:00
6:53 PM,21.0,15.1,78,30.35,10.0,Calm,Calm,-,N/A,,Mostly Cloudy,0,2013-12-29 01:53:00
7:53 PM,19.0,15.1,85,30.39,10.0,South,3.5,-,N/A,,Mostly Cloudy,180,2013-12-29 02:53:00
8:53 PM,18.0,14.0,84,30.40,10.0,SW,3.5,-,N/A,,Clear,230,2013-12-29 03:53:00
9:53 PM,18.0,14.0,84,30.40,10.0,SSE,5.8,-,N/A,,Clear,160,2013-12-29 04:53:00
10:53 PM,17.1,10.9,77,30.40,10.0,SSW,8.1,-,N/A,,Clear,210,2013-12-29 05:53:00
11:53 PM,12.9,10.9,92,30.43,10.0,SW,4.6,-,N/A,,Clear,230,2013-12-29 06:53:00